カタログに戻る

STARLINK-31669

運用中通信VLEO
NORAD 59515·PAYLOAD·🇺🇸 United States

打ち上げ Apr 17, 2024 から Cape Canaveral Space Force Station

Loading…

次のパス (今後24時間)

TLE

最新Source: CelesTrak SupGP

元期: Sep 14, 2026, 20:56 UTC

1 59515C 24073E   26257.87270833 -.00027119  00000+0 -98223-3 0  2576
2 59515  43.0008 329.3783 0001405 267.8355  14.9595 15.27592990    16

AllMySatでSTARLINK-31669をリアルタイム追跡

Download on the App Store